Latest Weather Observations for Outer Harbor (Black Pole)

IDS60801

Issued at 5:01 am CDT Friday 24 November 2017 (issued every 30 minutes, with the page automatically refreshed every 10 minutes)

About weather observations | Map of weather stations | Latest weather observations for SA | Other Formats
Station Details ID: 023052 Name: BLACK POLE Lat: -34.73 Lon: 138.47 Height: 6.27 m
Data from the previous 72 hours. | See also: Recent months for locations in South Australia
Date/Time
CDT
Temp
°C
App
Temp
°C
Dew
Point
°C
Rel
Hum
%
Delta-T
°C
Wind Press
QNH
hPa
Press
MSL
hPa
Rain since
9am
mm
Dir  Spd
km/h
Gust
km/h
Spd
kts
Gust
kts
24/05:00am - - - - - E 6 6 3 3 - - -
24/04:30am - - - - - ENE 13 15 7 8 - - -
24/04:00am - - - - - ESE 11 13 6 7 - - -
24/03:30am - - - - - E 9 11 5 6 - - -
24/03:00am - - - - - N 13 15 7 8 - - -
24/02:30am - - - - - E 4 4 2 2 - - -
24/02:00am - - - - - NE 13 17 7 9 - - -
24/01:30am - - - - - ENE 13 17 7 9 - - -
24/01:00am - - - - - SSE 13 15 7 8 - - -
24/12:30am - - - - - S 15 17 8 9 - - -
24/12:00am - - - - - S 7 9 4 5 - - -
 
Date/Time
CDT
Temp
°C
App
Temp
°C
Dew
Point
°C
Rel
Hum
%
Delta-T
°C
Wind Press
QNH
hPa
Press
MSL
hPa
Rain since
9am
mm
Dir  Spd
km/h
Gust
km/h
Spd
kts
Gust
kts
23/11:30pm - - - - - SSE 7 9 4 5 - - -
23/11:00pm - - - - - SE 9 13 5 7 - - -
23/10:30pm - - - - - SE 13 15 7 8 - - -
23/10:00pm - - - - - ESE 17 20 9 11 - - -
23/09:30pm - - - - - SE 13 17 7 9 - - -
23/09:00pm - - - - - SSE 15 17 8 9 - - -
23/08:30pm - - - - - S 17 20 9 11 - - -
23/08:00pm - - - - - SSW 19 20 10 11 - - -
23/07:30pm - - - - - SW 20 22 11 12 - - -
23/07:00pm - - - - - SW 24 30 13 16 - - -
23/06:30pm - - - - - SSW 19 28 10 15 - - -
23/06:00pm - - - - - ENE 30 37 16 20 - - -
23/05:30pm - - - - - NNE 24 28 13 15 - - -
23/05:00pm - - - - - NNE 26 35 14 19 - - -
23/04:30pm - - - - - NNE 28 35 15 19 - - -
23/04:00pm - - - - - NE 24 35 13 19 - - -
23/03:30pm - - - - - ENE 24 28 13 15 - - -
23/03:00pm - - - - - ENE 20 26 11 14 - - -
23/02:30pm - - - - - E 24 28 13 15 - - -
23/02:00pm - - - - - E 17 19 9 10 - - -
23/01:30pm - - - - - SSW 6 11 3 6 - - -
23/01:00pm - - - - - WNW 26 33 14 18 - - -
23/12:30pm - - - - - WSW 15 19 8 10 - - -
23/12:00pm - - - - - W 26 39 14 21 - - -
23/11:30am - - - - - WNW 22 28 12 15 - - -
23/11:00am - - - - - WNW 24 30 13 16 - - -
23/10:30am - - - - - NW 15 20 8 11 - - -
23/10:00am - - - - - NNW 15 17 8 9 - - -
23/09:30am - - - - - NNW 24 32 13 17 - - -
23/09:00am - - - - - NNE 15 19 8 10 - - -
23/08:30am - - - - - NE 11 15 6 8 - - -
23/08:00am - - - - - ENE 13 17 7 9 - - -
23/07:30am - - - - - ENE 17 19 9 10 - - -
23/07:00am - - - - - NE 19 22 10 12 - - -
23/06:30am - - - - - CALM 0 0 0 0 - - -
23/06:00am - - - - - SE 4 6 2 3 - - -
23/05:30am - - - - - SE 9 11 5 6 - - -
23/05:00am - - - - - ESE 13 15 7 8 - - -
23/04:30am - - - - - E 19 22 10 12 - - -
23/04:00am - - - - - NE 19 22 10 12 - - -
23/03:30am - - - - - ENE 15 19 8 10 - - -
23/03:00am - - - - - SE 7 9 4 5 - - -
23/02:30am - - - - - SW 15 17 8 9 - - -
23/02:00am - - - - - W 13 20 7 11 - - -
23/01:30am - - - - - NNW 15 22 8 12 - - -
23/01:00am - - - - - E 19 24 10 13 - - -
23/12:30am - - - - - NNE 15 22 8 12 - - -
23/12:00am - - - - - NE 15 17 8 9 - - -
 
Date/Time
CDT
Temp
°C
App
Temp
°C
Dew
Point
°C
Rel
Hum
%
Delta-T
°C
Wind Press
QNH
hPa
Press
MSL
hPa
Rain since
9am
mm
Dir  Spd
km/h
Gust
km/h
Spd
kts
Gust
kts
22/11:30pm - - - - - E 13 17 7 9 - - -
22/11:00pm - - - - - ESE 19 22 10 12 - - -
22/10:30pm - - - - - ESE 30 35 16 19 - - -
22/10:00pm - - - - - ENE 24 32 13 17 - - -
22/09:30pm - - - - - NE 24 32 13 17 - - -
22/09:00pm - - - - - NNW 15 20 8 11 - - -
22/08:30pm - - - - - NNW 17 22 9 12 - - -
22/08:00pm - - - - - N 20 32 11 17 - - -
22/07:30pm - - - - - SE 6 7 3 4 - - -
22/07:00pm - - - - - WSW 9 15 5 8 - - -
22/06:30pm - - - - - SW 13 22 7 12 - - -
22/06:00pm - - - - - SSW 13 17 7 9 - - -
22/05:30pm - - - - - S 17 20 9 11 - - -
22/05:00pm - - - - - S 22 26 12 14 - - -
22/04:30pm - - - - - S 22 26 12 14 - - -
22/04:00pm - - - - - S 22 26 12 14 - - -
22/03:30pm - - - - - S 22 26 12 14 - - -
22/03:00pm - - - - - S 28 32 15 17 - - -
22/02:30pm - - - - - SSW 28 32 15 17 - - -
22/02:00pm - - - - - SSW 35 46 19 25 - - -
22/01:50pm - - - - - SW 32 44 17 24 - - -
22/01:30pm - - - - - W 35 41 19 22 - - -
22/01:06pm - - - - - WNW 28 44 15 24 - - -
22/01:00pm - - - - - WNW 19 24 10 13 - - -
22/12:30pm - - - - - W 24 28 13 15 - - -
22/12:00pm - - - - - W 17 22 9 12 - - -
22/11:30am - - - - - W 17 20 9 11 - - -
22/11:00am - - - - - WNW 17 22 9 12 - - -
22/10:30am - - - - - W 17 20 9 11 - - -
22/10:00am - - - - - WNW 19 28 10 15 - - -
22/09:30am - - - - - N 28 35 15 19 - - -
22/09:00am - - - - - NNE 33 44 18 24 - - -
22/08:56am - - - - - NNE 28 39 15 21 - - -
22/08:30am - - - - - NE 17 20 9 11 - - -
22/08:00am - - - - - NNE 19 22 10 12 - - -
22/07:30am - - - - - NNE 15 17 8 9 - - -
22/07:00am - - - - - NE 19 20 10 11 - - -
22/06:30am - - - - - NE 19 22 10 12 - - -
22/06:00am - - - - - NE 22 26 12 14 - - -
22/05:30am - - - - - NE 22 24 12 13 - - -
22/05:00am - - - - - NE 22 26 12 14 - - -
22/04:30am - - - - - NE 22 26 12 14 - - -
22/04:00am - - - - - NE 22 26 12 14 - - -
22/03:30am - - - - - NE 19 22 10 12 - - -
22/03:00am - - - - - NE 22 26 12 14 - - -
22/02:30am - - - - - NE 24 28 13 15 - - -
22/02:00am - - - - - NE 26 30 14 16 - - -
22/01:30am - - - - - NE 24 28 13 15 - - -
22/01:00am - - - - - NE 19 20 10 11 - - -
22/12:30am - - - - - NE 19 20 10 11 - - -
22/12:00am - - - - - NE 19 22 10 12 - - -
 
Date/Time
CDT
Temp
°C
App
Temp
°C
Dew
Point
°C
Rel
Hum
%
Delta-T
°C
Wind Press
QNH
hPa
Press
MSL
hPa
Rain since
9am
mm
Dir  Spd
km/h
Gust
km/h
Spd
kts
Gust
kts
21/11:30pm - - - - - ENE 20 24 11 13 - - -
21/11:00pm - - - - - ENE 20 22 11 12 - - -
21/10:30pm - - - - - ENE 19 20 10 11 - - -
21/10:00pm - - - - - ENE 19 20 10 11 - - -
21/09:30pm - - - - - ENE 19 20 10 11 - - -
21/09:00pm - - - - - ENE 19 20 10 11 - - -
21/08:30pm - - - - - NE 19 20 10 11 - - -
21/08:00pm - - - - - ENE 24 28 13 15 - - -
21/07:30pm - - - - - E 11 28 6 15 - - -
21/07:00pm - - - - - S 15 20 8 11 - - -
21/06:30pm - - - - - S 20 24 11 13 - - -
21/06:00pm - - - - - S 22 30 12 16 - - -
21/05:30pm - - - - - S 19 28 10 15 - - -
21/05:00pm - - - - - S 19 22 10 12 - - -
21/04:30pm - - - - - S 22 28 12 15 - - -
21/04:00pm - - - - - SSW 13 20 7 11 - - -
21/03:30pm - - - - - NW 11 20 6 11 - - -
21/03:00pm - - - - - N 11 24 6 13 - - -
21/02:30pm - - - - - NE 22 28 12 15 - - -
21/02:00pm - - - - - NE 20 30 11 16 - - -
21/01:30pm - - - - - NE 17 28 9 15 - - -
21/01:00pm - - - - - NNE 28 39 15 21 - - -
21/12:30pm - - - - - NE 22 30 12 16 - - -
21/12:00pm - - - - - NE 24 32 13 17 - - -
21/11:30am - - - - - NNE 26 35 14 19 - - -
21/11:00am - - - - - NNE 24 39 13 21 - - -
21/10:30am - - - - - N 30 37 16 20 - - -
21/10:00am - - - - - NNE 30 37 16 20 - - -
21/09:30am - - - - - NNE 24 32 13 17 - - -
21/09:00am - - - - - NE 24 30 13 16 - - -
21/08:30am - - - - - NE 24 32 13 17 - - -
21/08:00am - - - - - NE 28 37 15 20 - - -
21/07:30am - - - - - NE 28 33 15 18 - - -
21/07:00am - - - - - NE 30 35 16 19 - - -
21/06:30am - - - - - NE 28 35 15 19 - - -
21/06:00am - - - - - NE 28 32 15 17 - - -
21/05:30am - - - - - ENE 28 35 15 19 - - -

Other Formats:

Comma delimited format used in spreadsheet applications
http://www.bom.gov.au/fwo/IDS60801/IDS60801.95675.axf

JavaScript Object Notation format (JSON) in row-major order
http://www.bom.gov.au/fwo/IDS60801/IDS60801.95675.json